VKG168 EKCH-LGRP

Flight info

Callsign VKG168
Flight time 3h 2m
Altitude 33000
Route SALLO M44 KOGIM DCT BINKA DCT DESEN DCT MAKAL DCT PARAK DCT OBLAK DCT NISVA DCT VANET DCT NIKTI DCT KERMA UL618 MES UN139 LURUS UL995 KOPAR L995 CODIC
Aircraft A321/M-SDE2E3FGHIJ1RWXYZ/LB2

Departure

Time 2026-04-30 07:56
Airport Copenhagen Kastrup Airport (EKCH)

Arrival

Time 2026-04-30 10:59
Airport Rhodes International Airport "Diagoras" (LGRP)
Time Latitude Longitude Altitude Speed Heading
2026-04-30 07:30 55.62868 12.63998 17 ft 0 kts 11°
2026-04-30 07:45 55.62862 12.63996 18 ft 4 kts 12°
2026-04-30 07:46 55.62836 12.63986 17 ft 4 kts 12°
2026-04-30 07:46 55.62809 12.63977 17 ft 3 kts 12°
2026-04-30 07:46 55.62789 12.63969 18 ft 4 kts 18°
2026-04-30 07:46 55.62768 12.63952 19 ft 2 kts 33°
2026-04-30 07:47 55.62747 12.63928 20 ft 4 kts 33°
2026-04-30 07:47 55.62724 12.63902 19 ft 4 kts 33°
2026-04-30 07:47 55.62702 12.63876 19 ft 4 kts 33°
2026-04-30 07:47 55.62682 12.63853 17 ft 4 kts 36°
2026-04-30 07:48 55.62665 12.63820 20 ft 4 kts 73°
2026-04-30 07:48 55.62663 12.63780 20 ft 4 kts 94°
2026-04-30 07:48 55.62665 12.63733 19 ft 4 kts 94°
2026-04-30 07:48 55.62667 12.63686 17 ft 3 kts 94°
2026-04-30 07:49 55.62667 12.63679 17 ft 0 kts 94°
2026-04-30 07:51 55.62666 12.63712 17 ft 8 kts 94°
2026-04-30 07:51 55.62645 12.63864 17 ft 18 kts 115°
2026-04-30 07:52 55.62563 12.64095 17 ft 24 kts 123°
2026-04-30 07:52 55.62474 12.64338 17 ft 23 kts 125°
2026-04-30 07:52 55.62353 12.64438 17 ft 20 kts 198°
2026-04-30 07:52 55.62222 12.64364 15 ft 20 kts 199°
2026-04-30 07:53 55.62104 12.64264 18 ft 18 kts 207°
2026-04-30 07:53 55.61995 12.64177 19 ft 17 kts 205°
2026-04-30 07:53 55.61896 12.64095 19 ft 15 kts 205°
2026-04-30 07:53 55.61796 12.64075 17 ft 14 kts 179°
2026-04-30 07:54 55.61708 12.64086 18 ft 11 kts 174°
2026-04-30 07:54 55.61647 12.64084 21 ft 7 kts 192°
2026-04-30 07:54 55.61610 12.64052 22 ft 6 kts 215°
2026-04-30 07:54 55.61603 12.64043 22 ft 1 kts 216°
2026-04-30 07:55 55.61601 12.64040 21 ft 1 kts 217°
2026-04-30 07:55 55.61582 12.64014 20 ft 9 kts 219°
2026-04-30 07:55 55.61321 12.63600 20 ft 95 kts 221°
2026-04-30 07:55 55.60638 12.62532 21 ft 164 kts 220°
2026-04-30 07:56 55.59686 12.61028 372 ft 192 kts 223°
2026-04-30 07:56 55.58677 12.59497 1187 ft 191 kts 224°
2026-04-30 07:56 55.57626 12.57881 1675 ft 213 kts 225°
2026-04-30 07:56 55.56434 12.56109 2345 ft 233 kts 217°
2026-04-30 07:57 55.54956 12.54781 3390 ft 242 kts 204°
2026-04-30 07:57 55.53350 12.53776 4488 ft 248 kts 200°
2026-04-30 07:57 55.51683 12.52857 5527 ft 254 kts 198°
2026-04-30 07:57 55.49972 12.51928 6513 ft 261 kts 198°
2026-04-30 07:58 55.48212 12.50945 7310 ft 275 kts 198°
2026-04-30 07:58 55.46297 12.50119 7928 ft 290 kts 181°
2026-04-30 07:58 55.44301 12.50620 8729 ft 293 kts 155°
2026-04-30 07:58 55.42602 12.52526 9609 ft 290 kts 129°
2026-04-30 07:59 55.41516 12.55443 10496 ft 284 kts 104°
2026-04-30 07:59 55.40914 12.58833 10990 ft 301 kts 101°
2026-04-30 07:59 55.40304 12.62495 11384 ft 321 kts 101°
2026-04-30 08:00 55.39017 12.70164 12477 ft 331 kts 102°
2026-04-30 08:00 55.38352 12.74059 13077 ft 334 kts 102°
2026-04-30 08:00 55.37674 12.77990 13689 ft 337 kts 102°
2026-04-30 08:00 55.36991 12.81944 14290 ft 340 kts 102°
2026-04-30 08:01 55.36297 12.85934 14821 ft 343 kts 101°
2026-04-30 08:01 55.35598 12.89952 15353 ft 345 kts 101°
2026-04-30 08:01 55.34902 12.93943 15895 ft 347 kts 101°
2026-04-30 08:01 55.33964 12.97904 16429 ft 357 kts 112°
2026-04-30 08:02 55.30505 13.04491 17478 ft 383 kts 140°
2026-04-30 08:02 55.28122 13.06751 17984 ft 391 kts 147°
2026-04-30 08:03 55.23212 13.11058 18938 ft 398 kts 146°
2026-04-30 08:03 55.18232 13.15445 19823 ft 403 kts 146°
2026-04-30 08:03 55.15752 13.17625 20239 ft 405 kts 146°
2026-04-30 08:04 55.13226 13.19837 20665 ft 407 kts 146°
2026-04-30 08:04 55.10687 13.22059 21103 ft 409 kts 146°
2026-04-30 08:04 55.08137 13.24294 21527 ft 411 kts 146°
2026-04-30 08:04 55.05568 13.26538 21967 ft 414 kts 146°
2026-04-30 08:05 55.02982 13.28790 22370 ft 416 kts 146°
2026-04-30 08:05 55.00384 13.31053 22784 ft 419 kts 146°
2026-04-30 08:05 54.97774 13.33324 23178 ft 421 kts 146°
2026-04-30 08:05 54.95145 13.35605 23562 ft 423 kts 146°
2026-04-30 08:06 54.92479 13.37723 23939 ft 431 kts 153°
2026-04-30 08:06 54.89561 13.39170 24265 ft 441 kts 163°
2026-04-30 08:06 54.86508 13.40008 24574 ft 445 kts 166°
2026-04-30 08:06 54.83442 13.40816 24888 ft 447 kts 166°
2026-04-30 08:07 54.80361 13.41638 25206 ft 449 kts 166°
2026-04-30 08:07 54.77271 13.42473 25511 ft 450 kts 166°
2026-04-30 08:07 54.74165 13.43317 25824 ft 452 kts 166°
2026-04-30 08:07 54.71048 13.44163 26127 ft 454 kts 166°
2026-04-30 08:08 54.67917 13.45007 26429 ft 456 kts 166°
2026-04-30 08:08 54.64772 13.45847 26738 ft 458 kts 166°
2026-04-30 08:08 54.61616 13.46686 27036 ft 460 kts 166°
2026-04-30 08:08 54.58445 13.47528 27325 ft 462 kts 166°
2026-04-30 08:09 54.55259 13.48373 27633 ft 464 kts 166°
2026-04-30 08:09 54.52061 13.49218 27911 ft 466 kts 166°
2026-04-30 08:09 54.48891 13.50055 28197 ft 468 kts 166°
2026-04-30 08:09 54.45663 13.50892 28478 ft 471 kts 166°
2026-04-30 08:10 54.42410 13.51720 28726 ft 473 kts 167°
2026-04-30 08:10 54.39144 13.52539 28994 ft 476 kts 167°
2026-04-30 08:10 54.35877 13.53468 29262 ft 474 kts 161°
2026-04-30 08:10 54.32736 13.55078 29504 ft 469 kts 152°
2026-04-30 08:11 54.29800 13.57435 29748 ft 464 kts 143°
2026-04-30 08:11 54.27130 13.60457 29992 ft 458 kts 135°
2026-04-30 08:11 54.24628 13.63832 30219 ft 459 kts 135°
2026-04-30 08:11 54.22110 13.67205 30470 ft 461 kts 135°
2026-04-30 08:12 54.19573 13.70566 30690 ft 462 kts 135°
2026-04-30 08:12 54.17027 13.73924 30894 ft 464 kts 135°
2026-04-30 08:12 54.14468 13.77294 31102 ft 465 kts 135°
2026-04-30 08:12 54.11900 13.80669 31307 ft 466 kts 135°
2026-04-30 08:13 54.09330 13.84045 31530 ft 468 kts 135°
2026-04-30 08:13 54.06754 13.87433 31803 ft 469 kts 135°
2026-04-30 08:13 54.04173 13.90825 32070 ft 468 kts 135°
2026-04-30 08:13 54.01600 13.94206 32388 ft 467 kts 135°
2026-04-30 08:14 53.99027 13.97582 32704 ft 466 kts 135°
2026-04-30 08:14 53.96461 14.00938 33002 ft 465 kts 135°
2026-04-30 08:14 53.93893 14.04285 33298 ft 465 kts 135°
2026-04-30 08:14 53.91325 14.07620 33458 ft 465 kts 135°
2026-04-30 08:15 53.88745 14.10976 33490 ft 470 kts 135°
2026-04-30 08:15 53.83517 14.17776 33496 ft 476 kts 135°
2026-04-30 08:16 53.79139 14.23437 33529 ft 477 kts 135°
2026-04-30 08:16 53.73672 14.29856 33497 ft 483 kts 141°
2026-04-30 08:17 53.67912 14.35691 33499 ft 483 kts 141°
2026-04-30 08:17 53.62157 14.41534 33500 ft 483 kts 141°
2026-04-30 08:18 53.56395 14.47362 33501 ft 483 kts 141°
2026-04-30 08:18 53.50633 14.53151 33502 ft 483 kts 142°
2026-04-30 08:19 53.44868 14.58916 33549 ft 482 kts 141°
2026-04-30 08:19 53.39096 14.64680 33541 ft 483 kts 141°
2026-04-30 08:20 53.33330 14.70440 33531 ft 483 kts 141°
2026-04-30 08:20 53.27555 14.76177 33522 ft 483 kts 141°
2026-04-30 08:21 53.21772 14.81885 33519 ft 483 kts 141°
2026-04-30 08:21 53.15986 14.87591 33524 ft 483 kts 141°
2026-04-30 08:22 53.10205 14.93286 33529 ft 483 kts 141°
2026-04-30 08:22 53.04418 14.98975 33529 ft 483 kts 141°
2026-04-30 08:23 52.98662 15.04599 33523 ft 483 kts 141°
2026-04-30 08:23 52.92866 15.10226 33526 ft 483 kts 141°
2026-04-30 08:24 52.87071 15.15843 33525 ft 482 kts 141°
2026-04-30 08:24 52.81283 15.21452 33514 ft 482 kts 141°
2026-04-30 08:25 52.75489 15.27044 33551 ft 482 kts 141°
2026-04-30 08:25 52.69691 15.32621 33537 ft 482 kts 141°
2026-04-30 08:26 52.63894 15.38185 33529 ft 482 kts 141°
2026-04-30 08:26 52.58100 15.43731 33520 ft 482 kts 141°
2026-04-30 08:27 52.52308 15.49251 33516 ft 481 kts 141°
2026-04-30 08:27 52.46505 15.54753 33511 ft 482 kts 141°
2026-04-30 08:28 52.40734 15.60210 33524 ft 482 kts 141°
2026-04-30 08:28 52.34938 15.65697 33510 ft 481 kts 141°
2026-04-30 08:29 52.29137 15.71169 33505 ft 482 kts 141°
2026-04-30 08:29 52.23330 15.76629 33508 ft 482 kts 141°
2026-04-30 08:30 52.17510 15.82075 33513 ft 483 kts 141°
2026-04-30 08:30 52.11680 15.87493 33518 ft 483 kts 141°
2026-04-30 08:31 52.05849 15.92907 33533 ft 482 kts 141°
2026-04-30 08:31 52.00023 15.98317 33517 ft 482 kts 141°
2026-04-30 08:32 51.94190 16.03707 33511 ft 482 kts 141°
2026-04-30 08:32 51.88353 16.09086 33518 ft 482 kts 141°
2026-04-30 08:33 51.82524 16.14453 33512 ft 482 kts 141°
2026-04-30 08:33 51.76681 16.19799 33504 ft 482 kts 141°
2026-04-30 08:34 51.70834 16.25125 33520 ft 482 kts 141°
2026-04-30 08:34 51.64989 16.30457 33510 ft 483 kts 141°
2026-04-30 08:35 51.59184 16.35738 33515 ft 483 kts 141°
2026-04-30 08:35 51.53297 16.41066 33516 ft 483 kts 141°
2026-04-30 08:36 51.47437 16.46351 33521 ft 483 kts 141°
2026-04-30 08:36 51.41622 16.51589 33562 ft 483 kts 141°
2026-04-30 08:37 51.35762 16.56852 33513 ft 483 kts 141°
2026-04-30 08:37 51.29896 16.62096 33517 ft 483 kts 141°
2026-04-30 08:38 51.24023 16.67322 33516 ft 483 kts 141°
2026-04-30 08:38 51.18160 16.72544 33516 ft 483 kts 141°
2026-04-30 08:39 51.12291 16.77756 33514 ft 483 kts 141°
2026-04-30 08:39 51.06421 16.82940 33546 ft 483 kts 141°
2026-04-30 08:40 51.00545 16.88116 33541 ft 483 kts 141°
2026-04-30 08:40 50.94674 16.93276 33531 ft 483 kts 141°
2026-04-30 08:41 50.88798 16.98426 33520 ft 482 kts 141°
2026-04-30 08:41 50.82923 17.03566 33516 ft 483 kts 141°
2026-04-30 08:42 50.77034 17.08690 33512 ft 483 kts 141°
2026-04-30 08:42 50.71149 17.13796 33513 ft 482 kts 142°
2026-04-30 08:43 50.65262 17.18898 33506 ft 483 kts 142°
2026-04-30 08:43 50.59378 17.23986 33501 ft 483 kts 142°
2026-04-30 08:44 50.53482 17.29064 33500 ft 483 kts 142°
2026-04-30 08:44 50.47630 17.34096 33505 ft 483 kts 142°
2026-04-30 08:45 50.41739 17.39145 33538 ft 483 kts 143°
2026-04-30 08:45 50.35839 17.44183 33508 ft 483 kts 143°
2026-04-30 08:46 50.29940 17.49199 33493 ft 483 kts 143°
2026-04-30 08:46 50.23841 17.53767 33500 ft 490 kts 149°
2026-04-30 08:47 50.17540 17.57835 33488 ft 490 kts 149°
2026-04-30 08:47 50.11227 17.61883 33483 ft 491 kts 149°
2026-04-30 08:48 50.04911 17.65944 33522 ft 491 kts 150°
2026-04-30 08:48 49.98596 17.69995 33499 ft 491 kts 150°
2026-04-30 08:49 49.92277 17.74023 33494 ft 491 kts 151°
2026-04-30 08:49 49.85957 17.78044 33493 ft 491 kts 151°
2026-04-30 08:50 49.79641 17.82066 33492 ft 491 kts 151°
2026-04-30 08:50 49.73329 17.86077 33488 ft 491 kts 151°
2026-04-30 08:51 49.67007 17.90073 33490 ft 491 kts 151°
2026-04-30 08:51 49.60682 17.94052 33488 ft 491 kts 151°
2026-04-30 08:52 49.54361 17.98017 33481 ft 490 kts 151°
2026-04-30 08:52 49.48081 18.01952 33477 ft 490 kts 151°
2026-04-30 08:53 49.41763 18.05901 33467 ft 490 kts 152°
2026-04-30 08:53 49.35447 18.09842 33493 ft 490 kts 152°
2026-04-30 08:54 49.29133 18.13770 33484 ft 490 kts 152°
2026-04-30 08:54 49.22826 18.17686 33466 ft 489 kts 152°
2026-04-30 08:55 49.16582 18.21782 33463 ft 487 kts 151°
2026-04-30 08:55 49.10401 18.25983 33460 ft 486 kts 151°
2026-04-30 08:56 49.04213 18.30154 33447 ft 486 kts 151°
2026-04-30 08:56 48.98012 18.34248 33476 ft 485 kts 152°
2026-04-30 08:57 48.91814 18.38306 33450 ft 485 kts 153°
2026-04-30 08:57 48.85628 18.42366 33444 ft 484 kts 153°
2026-04-30 08:58 48.79447 18.46425 33436 ft 484 kts 153°
2026-04-30 08:58 48.73267 18.50464 33427 ft 484 kts 153°
2026-04-30 08:59 48.67123 18.54465 33433 ft 484 kts 153°
2026-04-30 08:59 48.60893 18.58510 33440 ft 485 kts 154°
2026-04-30 09:00 48.54738 18.62511 33434 ft 485 kts 153°
2026-04-30 09:00 48.48540 18.66528 33412 ft 485 kts 154°
2026-04-30 09:01 48.42325 18.70526 33409 ft 486 kts 154°
2026-04-30 09:01 48.36108 18.74525 33405 ft 486 kts 154°
2026-04-30 09:02 48.26778 18.80515 33432 ft 486 kts 154°
2026-04-30 09:02 48.20567 18.84492 33427 ft 485 kts 154°
2026-04-30 09:03 48.14354 18.88453 33416 ft 485 kts 155°
2026-04-30 09:03 48.08142 18.92398 33422 ft 485 kts 155°
2026-04-30 09:04 48.01923 18.96336 33427 ft 485 kts 155°
2026-04-30 09:04 47.95709 19.00262 33441 ft 485 kts 155°
2026-04-30 09:05 47.90539 19.03516 33419 ft 486 kts 155°
2026-04-30 09:05 47.84302 19.07434 33403 ft 486 kts 155°
2026-04-30 09:06 47.78065 19.11353 33394 ft 487 kts 155°
2026-04-30 09:06 47.70801 19.15913 33395 ft 488 kts 155°
2026-04-30 09:07 47.65560 19.19184 33387 ft 488 kts 155°
2026-04-30 09:07 47.59297 19.23079 33403 ft 489 kts 155°
2026-04-30 09:08 47.53022 19.26978 33386 ft 489 kts 155°
2026-04-30 09:08 47.46745 19.30864 33391 ft 490 kts 155°
2026-04-30 09:09 47.40500 19.34725 33386 ft 490 kts 155°
2026-04-30 09:09 47.34205 19.38620 33390 ft 491 kts 155°
2026-04-30 09:10 47.27889 19.42503 33411 ft 492 kts 156°
2026-04-30 09:10 47.21567 19.46373 33401 ft 492 kts 156°
2026-04-30 09:11 47.15244 19.50236 33392 ft 492 kts 156°
2026-04-30 09:11 47.08917 19.54089 33383 ft 492 kts 156°
2026-04-30 09:12 47.02591 19.57942 33377 ft 492 kts 156°
2026-04-30 09:12 46.96265 19.61779 33401 ft 492 kts 156°
2026-04-30 09:13 46.89944 19.65595 33392 ft 491 kts 156°
2026-04-30 09:13 46.83639 19.69404 33400 ft 490 kts 156°
2026-04-30 09:14 46.77343 19.73205 33396 ft 490 kts 156°
2026-04-30 09:14 46.71045 19.76983 33386 ft 489 kts 156°
2026-04-30 09:15 46.64748 19.80754 33368 ft 490 kts 157°
2026-04-30 09:15 46.58447 19.84522 33366 ft 490 kts 157°
2026-04-30 09:16 46.52177 19.88256 33362 ft 490 kts 157°
2026-04-30 09:16 46.45859 19.92011 33339 ft 491 kts 157°
2026-04-30 09:17 46.39543 19.95766 33343 ft 491 kts 158°
2026-04-30 09:17 46.33211 19.99519 33345 ft 491 kts 158°
2026-04-30 09:18 46.26880 20.03259 33347 ft 492 kts 158°
2026-04-30 09:18 46.20541 20.06983 33327 ft 492 kts 158°
2026-04-30 09:19 46.14372 20.11214 33337 ft 492 kts 148°
2026-04-30 09:19 46.08558 20.16428 33344 ft 493 kts 148°
2026-04-30 09:20 46.02731 20.21624 33358 ft 492 kts 148°
2026-04-30 09:20 45.96900 20.26805 33332 ft 493 kts 149°
2026-04-30 09:21 45.91063 20.31986 33325 ft 493 kts 149°
2026-04-30 09:21 45.85220 20.37165 33335 ft 494 kts 149°
2026-04-30 09:22 45.79367 20.42339 33329 ft 494 kts 149°
2026-04-30 09:22 45.73510 20.47493 33349 ft 494 kts 150°
2026-04-30 09:23 45.67680 20.52611 33306 ft 495 kts 150°
2026-04-30 09:23 45.61770 20.57790 33312 ft 495 kts 150°
2026-04-30 09:24 45.55932 20.62900 33307 ft 495 kts 150°
2026-04-30 09:24 45.50054 20.68031 33305 ft 496 kts 151°
2026-04-30 09:25 45.44165 20.73147 33291 ft 496 kts 152°
2026-04-30 09:25 45.38277 20.78250 33290 ft 496 kts 152°
2026-04-30 09:26 45.32383 20.83356 33296 ft 496 kts 152°
2026-04-30 09:26 45.26484 20.88450 33289 ft 496 kts 152°
2026-04-30 09:27 45.20593 20.93530 33263 ft 496 kts 153°
2026-04-30 09:27 45.14690 20.98611 33276 ft 496 kts 153°
2026-04-30 09:28 45.08779 21.03667 33278 ft 496 kts 153°
2026-04-30 09:28 45.02873 21.08717 33285 ft 496 kts 153°
2026-04-30 09:29 44.96962 21.13766 33247 ft 496 kts 154°
2026-04-30 09:29 44.91047 21.18797 33271 ft 497 kts 154°
2026-04-30 09:30 44.85124 21.23824 33267 ft 497 kts 154°
2026-04-30 09:30 44.79238 21.28805 33269 ft 497 kts 154°
2026-04-30 09:31 44.73309 21.33814 33283 ft 497 kts 154°
2026-04-30 09:31 44.67381 21.38818 33290 ft 497 kts 155°
2026-04-30 09:32 44.61452 21.43805 33296 ft 497 kts 155°
2026-04-30 09:32 44.55522 21.48779 33299 ft 497 kts 155°
2026-04-30 09:33 44.49584 21.53747 33268 ft 497 kts 155°
2026-04-30 09:33 44.43642 21.58703 33276 ft 498 kts 155°
2026-04-30 09:34 44.37681 21.63666 33286 ft 498 kts 155°
2026-04-30 09:34 44.31727 21.68615 33290 ft 498 kts 155°
2026-04-30 09:35 44.25764 21.73556 33291 ft 498 kts 156°
2026-04-30 09:35 44.19794 21.78480 33268 ft 499 kts 156°
2026-04-30 09:36 44.13822 21.83397 33275 ft 499 kts 156°
2026-04-30 09:36 44.07844 21.88328 33283 ft 499 kts 156°
2026-04-30 09:37 44.01901 21.93211 33294 ft 499 kts 156°
2026-04-30 09:37 43.95920 21.98111 33267 ft 498 kts 157°
2026-04-30 09:38 43.89942 22.02990 33282 ft 498 kts 157°
2026-04-30 09:38 43.83962 22.07863 33286 ft 498 kts 157°
2026-04-30 09:39 43.77989 22.12729 33346 ft 499 kts 157°
2026-04-30 09:39 43.74989 22.15168 33603 ft 499 kts 158°
2026-04-30 09:39 43.71997 22.17598 33784 ft 499 kts 158°
2026-04-30 09:40 43.69036 22.19996 33968 ft 499 kts 157°
2026-04-30 09:40 43.66036 22.22419 34138 ft 499 kts 157°
2026-04-30 09:40 43.63035 22.24837 34359 ft 499 kts 157°
2026-04-30 09:40 43.60039 22.27252 34567 ft 498 kts 157°
2026-04-30 09:41 43.57045 22.29665 34782 ft 498 kts 157°
2026-04-30 09:41 43.54055 22.32072 34961 ft 498 kts 157°
2026-04-30 09:41 43.51063 22.34477 35140 ft 498 kts 158°
2026-04-30 09:41 43.48062 22.36889 35290 ft 499 kts 157°
2026-04-30 09:42 43.45074 22.39346 35480 ft 500 kts 156°
2026-04-30 09:42 43.42113 22.41852 35668 ft 500 kts 155°
2026-04-30 09:42 43.39165 22.44392 35852 ft 500 kts 155°
2026-04-30 09:42 43.36217 22.46943 36031 ft 500 kts 154°
2026-04-30 09:43 43.33276 22.49480 36217 ft 499 kts 154°
2026-04-30 09:43 43.30331 22.51998 36392 ft 498 kts 155°
2026-04-30 09:43 43.27381 22.54499 36563 ft 498 kts 155°
2026-04-30 09:43 43.24426 22.56988 36694 ft 498 kts 155°
2026-04-30 09:44 43.21473 22.59466 36884 ft 498 kts 155°
2026-04-30 09:44 43.18526 22.61939 37068 ft 497 kts 154°
2026-04-30 09:44 43.15576 22.64418 37230 ft 497 kts 154°
2026-04-30 09:44 43.12633 22.66895 37261 ft 496 kts 154°
2026-04-30 09:45 43.06747 22.71836 37229 ft 495 kts 154°
2026-04-30 09:45 43.00914 22.76714 37244 ft 494 kts 154°
2026-04-30 09:46 42.95066 22.81648 37236 ft 495 kts 153°
2026-04-30 09:46 42.89318 22.86859 37237 ft 496 kts 151°
2026-04-30 09:47 42.83616 22.92203 37190 ft 496 kts 151°
2026-04-30 09:47 42.77906 22.97471 37202 ft 496 kts 152°
2026-04-30 09:48 42.72168 23.02662 37215 ft 495 kts 153°
2026-04-30 09:48 42.66419 23.07834 37214 ft 495 kts 152°
2026-04-30 09:49 42.60718 23.12980 37214 ft 495 kts 153°
2026-04-30 09:49 42.54978 23.18155 37182 ft 496 kts 153°
2026-04-30 09:50 42.49228 23.23345 37186 ft 497 kts 153°
2026-04-30 09:50 42.43466 23.28521 37197 ft 497 kts 153°
2026-04-30 09:51 42.37695 23.33694 37186 ft 497 kts 153°
2026-04-30 09:51 42.31921 23.38849 37176 ft 497 kts 153°
2026-04-30 09:52 42.26168 23.44049 37148 ft 499 kts 151°
2026-04-30 09:52 42.20521 23.49504 37144 ft 499 kts 150°
2026-04-30 09:53 42.14941 23.54999 37148 ft 498 kts 150°
2026-04-30 09:53 42.09319 23.60441 37104 ft 497 kts 150°
2026-04-30 09:54 42.03682 23.65808 37122 ft 496 kts 150°
2026-04-30 09:54 41.98042 23.71165 37110 ft 496 kts 150°
2026-04-30 09:55 41.93362 23.75614 37112 ft 496 kts 150°
2026-04-30 09:55 41.87736 23.80965 37068 ft 496 kts 150°
2026-04-30 09:56 41.82105 23.86310 37064 ft 496 kts 150°
2026-04-30 09:56 41.76467 23.91631 37069 ft 496 kts 150°
2026-04-30 09:57 41.70827 23.96953 37062 ft 496 kts 150°
2026-04-30 09:57 41.65187 24.02267 37071 ft 496 kts 150°
2026-04-30 09:58 41.59535 24.07576 37048 ft 496 kts 150°
2026-04-30 09:58 41.53782 24.12605 37065 ft 489 kts 159°
2026-04-30 09:59 41.41400 24.19760 37078 ft 484 kts 162°
2026-04-30 10:00 41.32119 24.25090 37075 ft 484 kts 162°
2026-04-30 10:01 41.22890 24.30356 37103 ft 483 kts 162°
2026-04-30 10:02 41.13618 24.35620 37079 ft 483 kts 162°
2026-04-30 10:02 41.07451 24.39125 37086 ft 483 kts 162°
2026-04-30 10:03 41.01278 24.42627 37096 ft 482 kts 162°
2026-04-30 10:03 40.95109 24.46106 37097 ft 482 kts 162°
2026-04-30 10:04 40.88941 24.49572 37089 ft 481 kts 162°
2026-04-30 10:04 40.82787 24.53032 37099 ft 481 kts 162°
2026-04-30 10:05 40.76629 24.56494 37116 ft 481 kts 162°
2026-04-30 10:05 40.70473 24.59958 37101 ft 481 kts 162°
2026-04-30 10:06 40.64312 24.63407 37113 ft 481 kts 162°
2026-04-30 10:06 40.58151 24.66840 37122 ft 481 kts 162°
2026-04-30 10:07 40.51992 24.70272 37122 ft 481 kts 162°
2026-04-30 10:07 40.45869 24.73680 37109 ft 480 kts 162°
2026-04-30 10:08 40.39710 24.77095 37117 ft 480 kts 162°
2026-04-30 10:08 40.33558 24.80493 37115 ft 480 kts 162°
2026-04-30 10:09 40.27409 24.83892 37115 ft 479 kts 162°
2026-04-30 10:09 40.21266 24.87275 37103 ft 479 kts 162°
2026-04-30 10:10 40.15127 24.90658 37119 ft 479 kts 162°
2026-04-30 10:10 40.08988 24.94043 37114 ft 479 kts 162°
2026-04-30 10:11 40.02849 24.97401 37096 ft 478 kts 162°
2026-04-30 10:11 39.96712 25.00749 37107 ft 478 kts 162°
2026-04-30 10:12 39.90617 25.04082 37094 ft 478 kts 162°
2026-04-30 10:12 39.84485 25.07441 37103 ft 478 kts 162°
2026-04-30 10:13 39.78349 25.10774 37074 ft 477 kts 162°
2026-04-30 10:13 39.72220 25.14086 37080 ft 477 kts 162°
2026-04-30 10:14 39.66095 25.17411 37076 ft 477 kts 162°
2026-04-30 10:14 39.56905 25.22386 37076 ft 477 kts 162°
2026-04-30 10:15 39.50776 25.25694 37065 ft 477 kts 162°
2026-04-30 10:15 39.44653 25.28992 37065 ft 477 kts 162°
2026-04-30 10:16 39.38519 25.32284 37071 ft 477 kts 162°
2026-04-30 10:17 39.29326 25.37208 37057 ft 477 kts 162°
2026-04-30 10:17 39.20169 25.42111 37072 ft 476 kts 162°
2026-04-30 10:18 39.14046 25.45372 37079 ft 476 kts 162°
2026-04-30 10:19 39.04854 25.50256 37062 ft 476 kts 162°
2026-04-30 10:19 38.98730 25.53508 37064 ft 476 kts 162°
2026-04-30 10:20 38.92601 25.56754 37066 ft 476 kts 162°
2026-04-30 10:20 38.83388 25.61609 37057 ft 477 kts 162°
2026-04-30 10:21 38.77286 25.64826 37057 ft 478 kts 162°
2026-04-30 10:21 38.71140 25.68073 37067 ft 478 kts 162°
2026-04-30 10:22 38.64986 25.71315 37069 ft 478 kts 162°
2026-04-30 10:22 38.58836 25.74537 37054 ft 478 kts 162°
2026-04-30 10:23 38.52681 25.77752 37058 ft 478 kts 162°
2026-04-30 10:23 38.46513 25.80970 37062 ft 479 kts 162°
2026-04-30 10:24 38.40349 25.84184 37064 ft 479 kts 162°
2026-04-30 10:24 38.34109 25.87091 37045 ft 475 kts 168°
2026-04-30 10:25 38.27824 25.89552 37043 ft 476 kts 168°
2026-04-30 10:25 38.21505 25.92111 37051 ft 478 kts 166°
2026-04-30 10:26 38.15236 25.94999 37055 ft 479 kts 164°
2026-04-30 10:26 38.08984 25.97962 37035 ft 480 kts 165°
2026-04-30 10:27 38.02707 26.00856 37040 ft 480 kts 165°
2026-04-30 10:27 37.96397 26.03701 37042 ft 481 kts 165°
2026-04-30 10:28 37.90085 26.06542 37056 ft 481 kts 165°
2026-04-30 10:28 37.83771 26.09398 37030 ft 482 kts 165°
2026-04-30 10:29 37.77496 26.12241 37039 ft 483 kts 165°
2026-04-30 10:29 37.71166 26.15089 37042 ft 483 kts 165°
2026-04-30 10:30 37.64832 26.17935 37051 ft 483 kts 165°
2026-04-30 10:30 37.58495 26.20778 37059 ft 484 kts 165°
2026-04-30 10:31 37.52148 26.23627 37063 ft 484 kts 165°
2026-04-30 10:31 37.45806 26.26461 37065 ft 484 kts 165°
2026-04-30 10:32 37.39459 26.29290 37054 ft 484 kts 165°
2026-04-30 10:32 37.33112 26.32119 37055 ft 484 kts 165°
2026-04-30 10:33 37.26798 26.34934 37055 ft 484 kts 165°
2026-04-30 10:33 37.20441 26.37753 37057 ft 484 kts 165°
2026-04-30 10:34 37.17268 26.39160 36735 ft 484 kts 165°
2026-04-30 10:34 37.14119 26.40559 36462 ft 474 kts 165°
2026-04-30 10:34 37.11037 26.41933 36202 ft 466 kts 165°
2026-04-30 10:34 37.08008 26.43285 35945 ft 460 kts 165°
2026-04-30 10:35 37.04992 26.44628 35698 ft 458 kts 165°
2026-04-30 10:35 37.01992 26.45951 35449 ft 457 kts 165°
2026-04-30 10:35 36.98989 26.47270 35199 ft 457 kts 165°
2026-04-30 10:35 36.95995 26.48592 34950 ft 457 kts 163°
2026-04-30 10:36 36.93121 26.50327 34702 ft 461 kts 152°
2026-04-30 10:36 36.90504 26.52699 34469 ft 467 kts 141°
2026-04-30 10:36 36.88264 26.55647 34230 ft 470 kts 129°
2026-04-30 10:36 36.86465 26.59064 33864 ft 471 kts 118°
2026-04-30 10:37 36.85107 26.62786 33233 ft 471 kts 113°
2026-04-30 10:37 36.83828 26.66537 32664 ft 468 kts 113°
2026-04-30 10:37 36.82550 26.70264 32096 ft 467 kts 114°
2026-04-30 10:37 36.81270 26.73976 31579 ft 464 kts 113°
2026-04-30 10:38 36.80016 26.77610 31059 ft 461 kts 113°
2026-04-30 10:38 36.78751 26.81278 30540 ft 459 kts 113°
2026-04-30 10:38 36.77490 26.84932 30000 ft 457 kts 113°
2026-04-30 10:38 36.76241 26.88556 29455 ft 453 kts 113°
2026-04-30 10:39 36.75003 26.92145 28953 ft 448 kts 113°
2026-04-30 10:39 36.73774 26.95701 28435 ft 444 kts 113°
2026-04-30 10:39 36.72550 26.99225 27944 ft 440 kts 113°
2026-04-30 10:39 36.71337 27.02710 27462 ft 436 kts 113°
2026-04-30 10:40 36.70135 27.06159 26975 ft 432 kts 114°
2026-04-30 10:40 36.68941 27.09579 26499 ft 428 kts 114°
2026-04-30 10:40 36.67757 27.12971 26043 ft 424 kts 114°
2026-04-30 10:40 36.66589 27.16321 25593 ft 420 kts 114°
2026-04-30 10:41 36.65431 27.19647 25140 ft 416 kts 114°
2026-04-30 10:41 36.64283 27.22942 24701 ft 412 kts 114°
2026-04-30 10:41 36.63144 27.26199 24265 ft 408 kts 114°
2026-04-30 10:41 36.62011 27.29427 23826 ft 405 kts 114°
2026-04-30 10:42 36.60881 27.32625 23352 ft 402 kts 114°
2026-04-30 10:42 36.59762 27.35792 22905 ft 398 kts 114°
2026-04-30 10:42 36.58657 27.38922 22475 ft 393 kts 114°
2026-04-30 10:42 36.57578 27.41987 22035 ft 389 kts 114°
2026-04-30 10:43 36.56500 27.45052 21603 ft 385 kts 114°
2026-04-30 10:43 36.55427 27.48096 21164 ft 382 kts 114°
2026-04-30 10:43 36.54360 27.51108 20725 ft 379 kts 114°
2026-04-30 10:43 36.53301 27.54098 20289 ft 377 kts 114°
2026-04-30 10:44 36.52248 27.57072 19847 ft 375 kts 114°
2026-04-30 10:44 36.51200 27.60030 19415 ft 373 kts 114°
2026-04-30 10:44 36.50497 27.62016 19126 ft 371 kts 114°
2026-04-30 10:44 36.49470 27.64910 18695 ft 369 kts 114°
2026-04-30 10:45 36.48435 27.67826 18251 ft 368 kts 114°
2026-04-30 10:45 36.47404 27.70724 17789 ft 365 kts 114°
2026-04-30 10:45 36.46530 27.73667 17363 ft 362 kts 104°
2026-04-30 10:45 36.46068 27.76722 16947 ft 358 kts 98°
2026-04-30 10:46 36.45669 27.79758 16532 ft 355 kts 99°
2026-04-30 10:46 36.45265 27.82772 16121 ft 353 kts 99°
2026-04-30 10:46 36.44860 27.85771 15713 ft 350 kts 99°
2026-04-30 10:46 36.44454 27.88746 15304 ft 348 kts 100°
2026-04-30 10:47 36.43763 27.91623 14898 ft 347 kts 113°
2026-04-30 10:47 36.42614 27.94231 14497 ft 345 kts 125°
2026-04-30 10:47 36.41162 27.96594 14091 ft 343 kts 128°
2026-04-30 10:47 36.39706 27.98942 13666 ft 343 kts 127°
2026-04-30 10:48 36.38261 28.01283 13238 ft 340 kts 127°
2026-04-30 10:48 36.36827 28.03606 12833 ft 339 kts 127°
2026-04-30 10:48 36.35399 28.05920 12422 ft 337 kts 127°
2026-04-30 10:48 36.33976 28.08219 12003 ft 335 kts 127°
2026-04-30 10:49 36.32578 28.10537 11488 ft 337 kts 126°
2026-04-30 10:49 36.31220 28.12872 10990 ft 338 kts 125°
2026-04-30 10:49 36.29853 28.15261 10465 ft 340 kts 125°
2026-04-30 10:49 36.28494 28.17639 10160 ft 332 kts 125°
2026-04-30 10:50 36.27197 28.19900 9981 ft 310 kts 125°
2026-04-30 10:50 36.25999 28.21975 9852 ft 283 kts 125°
2026-04-30 10:50 36.25064 28.23979 9723 ft 255 kts 109°
2026-04-30 10:50 36.24758 28.26073 9247 ft 244 kts 87°
2026-04-30 10:51 36.25073 28.28105 8670 ft 239 kts 66°
2026-04-30 10:51 36.25912 28.29846 8079 ft 234 kts 47°
2026-04-30 10:51 36.27152 28.31125 7513 ft 231 kts 28°
2026-04-30 10:51 36.28643 28.31823 6943 ft 229 kts 10°
2026-04-30 10:52 36.30221 28.31916 6374 ft 227 kts 358°
2026-04-30 10:52 36.31798 28.31858 5777 ft 226 kts 358°
2026-04-30 10:52 36.33367 28.31806 5198 ft 225 kts 358°
2026-04-30 10:52 36.34925 28.31757 4623 ft 223 kts 358°
2026-04-30 10:53 36.36456 28.31710 4104 ft 222 kts 358°
2026-04-30 10:53 36.37996 28.31661 4029 ft 224 kts 358°
2026-04-30 10:53 36.39490 28.31614 3957 ft 205 kts 358°
2026-04-30 10:53 36.40874 28.31570 3848 ft 195 kts 358°
2026-04-30 10:54 36.42217 28.31504 3745 ft 193 kts 352°
2026-04-30 10:54 36.43491 28.31029 3649 ft 191 kts 332°
2026-04-30 10:54 36.44552 28.30051 3546 ft 190 kts 312°
2026-04-30 10:54 36.45284 28.28697 3374 ft 190 kts 293°
2026-04-30 10:55 36.45613 28.27103 2895 ft 194 kts 272°
2026-04-30 10:55 36.45447 28.25460 2540 ft 189 kts 251°
2026-04-30 10:55 36.45020 28.23993 2282 ft 172 kts 249°
2026-04-30 10:55 36.44632 28.22657 2060 ft 159 kts 249°
2026-04-30 10:56 36.44260 28.21378 1843 ft 156 kts 249°
2026-04-30 10:56 36.43893 28.20117 1644 ft 155 kts 249°
2026-04-30 10:56 36.43527 28.18861 1427 ft 154 kts 250°
2026-04-30 10:56 36.43170 28.17637 1232 ft 151 kts 250°
2026-04-30 10:57 36.42815 28.16421 1038 ft 149 kts 250°
2026-04-30 10:57 36.42462 28.15212 846 ft 149 kts 250°
2026-04-30 10:57 36.42112 28.14000 642 ft 150 kts 251°
2026-04-30 10:57 36.41762 28.12784 491 ft 150 kts 251°
2026-04-30 10:58 36.41403 28.11559 250 ft 151 kts 252°
2026-04-30 10:58 36.41036 28.10332 62 ft 151 kts 252°
2026-04-30 10:58 36.40701 28.09173 31 ft 119 kts 250°
2026-04-30 10:58 36.40517 28.08535 27 ft 50 kts 250°
2026-04-30 10:59 36.40400 28.08148 28 ft 44 kts 245°
2026-04-30 10:59 36.40246 28.07924 28 ft 29 kts 223°
2026-04-30 10:59 36.40152 28.07891 28 ft 13 kts 108°
2026-04-30 10:59 36.40174 28.07994 28 ft 12 kts 70°
2026-04-30 11:00 36.40203 28.08093 28 ft 12 kts 70°
2026-04-30 11:00 36.40232 28.08194 28 ft 13 kts 70°
2026-04-30 11:00 36.40263 28.08299 28 ft 13 kts 70°
2026-04-30 11:00 36.40296 28.08410 28 ft 14 kts 70°
2026-04-30 11:01 36.40331 28.08527 28 ft 15 kts 69°
2026-04-30 11:01 36.40365 28.08649 28 ft 15 kts 72°
2026-04-30 11:01 36.40398 28.08779 28 ft 16 kts 78°
2026-04-30 11:01 36.40399 28.08893 28 ft 11 kts 94°
2026-04-30 11:02 36.40401 28.08980 28 ft 6 kts 83°
2026-04-30 11:02 36.40387 28.09003 28 ft 3 kts 153°
2026-04-30 11:02 36.40365 28.09014 28 ft 3 kts 158°
2026-04-30 11:02 36.40346 28.09023 28 ft 3 kts 159°
2026-04-30 11:03 36.40336 28.09027 28 ft 0 kts 160°
2026-04-30 11:03 36.40335 28.09028 28 ft 0 kts 160°